dimanche 13 mai 2018

Le Classement original se trouve sur : http://www.maasmarathon.com      
 
LE MARATHON DE LA BASSE MEUSE - VISÉ
DISTANCE : 9.10 km
dimanche 13 mai 2018
 
Place Dos NOM Equipe Catégorie Pl/cat temps temps/km Vitesse
1 9361 GERREKENS JORDAN   SH 1 0:31:34 03:28 17.30
2 9344 AFKIR NAIM   SH 2 0:31:35 03:28 17.29
3 9306 ROCKS MIKE   SH 3 0:31:57 03:31 17.09
4 9374 VOSSIUS PETER   V1 1 0:32:32 03:34 16.79
5 9387 VERVIER ARNAUD   SH 4 0:32:52 03:37 16.62
6 9009 ROCKS STEPHANE ROCKSTEAM SH 5 0:33:35 03:41 16.26
7 9324 RELOUW BAS   SH 6 0:33:51 03:43 16.13
8 9299 LEVAUX UGO   JH 1 0:34:12 03:45 15.97
9 9032 NEZER CHRISTOPHE   SH 7 0:35:40 03:55 15.31
10 9152 LEONARD SYLVAIN   SH 8 0:36:02 03:58 15.16
11 9155 CIOMEK FRED   V1 2 0:36:21 04:00 15.02
12 9313 SLANGEN STEPHANE   SH 9 0:36:21 04:00 15.02
13 9342 DALEM EDDY   SH 10 0:36:24 04:00 15.00
14 9343 LEMIR FREDERIC TRIATHLIEGE V1 3 0:36:42 04:02 14.88
15 9286 MILAN DAN   V2 1 0:36:47 04:02 14.85
16 9304 JONGSTRA SIONE   A1 1 0:36:52 04:03 14.81
17 9312 VAN RENTERGHEM BENOITE   SD 1 0:37:17 04:06 14.65
18 9378 VAESEN PHILIPPE   SH 11 0:37:53 04:10 14.42
19 9391 HEINS JUSTIN   SH 12 0:38:04 04:11 14.35
20 9358 LIEUTENANT JEROME   SH 13 0:38:21 04:13 14.24
21 9437 VANBRABANRT RAPHAEL   V1 4 0:38:27 04:13 14.20
22 9337 ENGLEBERT FABIAN   SH 14 0:38:31 04:14 14.18
23 9300 TOSI IRENE   SD 2 0:38:32 04:14 14.17
24 9249 MASSON JULIEN   SH 15 0:38:34 04:14 14.16
25 9385 NIZET KARIM AC VISE SH 16 0:38:41 04:15 14.12
26 9111 LECLERE SEBASTIEN FNO6 SH 17 0:39:09 04:18 13.95
27 9173 MARTIN JEAN MANUEL   V3 1 0:39:16 04:19 13.91
28 9164 SWARTENBROUCKX LAURENT   SH 18 0:39:18 04:19 13.90
29 9231 BOULTON CÉDRIC   SH 19 0:39:34 04:21 13.80
30 9325 STASSEN ERIC   V2 2 0:39:39 04:21 13.77
31 9158 VANCRAYEBECK JULIEN   SH 20 0:39:50 04:23 13.71
32 9400 JENNES DAMIEN   SH 21 0:40:03 04:24 13.64
33 9146 DEMARET DANY   V1 5 0:40:07 04:24 13.61
34 9219 FRENAY PHILIPPE   SH 22 0:40:18 04:26 13.55
35 9218 D'ANS JORDAN   SH 23 0:40:19 04:26 13.55
36 9056 GARBACZ LUCAS CHC JH 2 0:40:28 04:27 13.50
37 9178 VELAZQUEZ TANGUY   JH 3 0:40:31 04:27 13.48
38 9375 LAMATTINA LUCAS   JH 4 0:40:32 04:27 13.47
39 9421 PINSART YANNICK   SH 24 0:41:10 04:31 13.27
40 9394 STALS OLIVIER   V1 6 0:41:14 04:32 13.24
41 9307 PISCART FRANCOISE   A1 2 0:41:15 04:32 13.24
42 9396 HERZET CLAUDE   V3 2 0:41:18 04:32 13.22
43 9042 COLLIN HERVÉ CHC SH 25 0:41:37 04:34 13.12
44 9406 VAN WARBECK REMY   SH 26 0:41:46 04:35 13.08
45 9410 VANDEVELD MANUEL   V1 7 0:41:55 04:36 13.03
46 9260 PHILIPPI JACKY   SH 27 0:41:56 04:36 13.02
47 9195 LONDOT DELPHINE   A1 3 0:41:57 04:37 13.02
48 9432 DIET FABRICE   V1 8 0:42:04 04:37 12.98
49 9445 HENRY JEAN-PAUL   V1 9 0:42:36 04:41 12.82
50 9189 BOURSE AURELIEN   SH 28 0:42:38 04:41 12.81
51 9298 CLAES MATHILDE   SD 3 0:42:39 04:41 12.80
52 9013 TROMME DORIAN BE4FIT VOTTEM SH 29 0:42:43 04:42 12.78
53 9329 TROMME EMMANUEL   SH 30 0:42:43 04:42 12.78
54 9074 MOROVICH NICOLAS AC VISÉ JH 5 0:42:45 04:42 12.77
55 9305 NR 9305   xxx   0:42:46 04:42 12.77
56 9151 DOCKIER BERTRAND   SH 31 0:42:52 04:43 12.74
57 9363 XHONNEUX ANDRE   SH 32 0:43:16 04:45 12.62
58 9407 JOSKIN ZENAIDE   SD 4 0:43:22 04:46 12.59
59 9021 MARQUET ANTOINE   JH 6 0:43:37 04:48 12.52
60 9214 ERNST MARGAUX   SD 5 0:43:38 04:48 12.52
61 9331 KREMERS RACHEL   SD 6 0:43:42 04:48 12.50
62 9333 DI PRIMA JOACHIM   SH 33 0:43:42 04:48 12.50
63 9332 STIJN BAERT   SH 34 0:43:42 04:48 12.50
64 9443 MOULET BORIS   SH 35 0:43:43 04:48 12.49
65 9140 PETRUZZELLI PIERRE   SH 36 0:43:45 04:48 12.48
66 9356 MESSERICH MARIE   SD 7 0:43:51 04:49 12.45
67 9357 CRASSON VINCENT   V2 3 0:43:51 04:49 12.45
68 9253 MEINGUET LUCIE   SD 8 0:43:59 04:50 12.42
69 9278 XHONNEUX FREDERIC   V1 10 0:44:00 04:50 12.41
70 9159 MAURAGE SOPHIE   SD 9 0:44:12 04:51 12.36
71 9197 CAPO-CHICHI FRANCOIS   SH 37 0:44:18 04:52 12.33
72 9388 HUBERTY ARNAUD   SH 38 0:44:23 04:53 12.30
73 9431 COUNET CHRISTIAN   V2 4 0:44:24 04:53 12.30
74 9433 DELREZ MARIE-HELENE   A1 4 0:44:25 04:53 12.30
75 9239 COLLARD THOMAS   SH 39 0:44:26 04:53 12.29
76 9228 LOUIS BASTIEN   SH 40 0:44:36 04:54 12.24
77 9318 SACRE NATHANIEL   SH 41 0:44:37 04:54 12.24
78 9311 MARANGONE MARCO   V2 5 0:44:41 04:55 12.22
79 9063 HOFMAN MICHAEL CHC V1 11 0:44:49 04:55 12.19
80 9348 REIP VINCENT   SH 42 0:44:53 04:56 12.17
81 9417 DELCOUR SYLVIE   A1 5 0:44:57 04:56 12.15
82 9429 TROISFONTAINES CHRISTINE   A1 6 0:44:58 04:56 12.14
83 9404 WOUTERS MATHIS   JH 7 0:45:00 04:57 12.14
84 9338 ENGLEBERT CHRISTOPHE   V1 12 0:45:01 04:57 12.13
85 9225 DIDI CHARLES   SH 43 0:45:10 04:58 12.09
86 9458 VIEILLEVOYE ARTHUR   SH 44 0:45:13 04:58 12.08
87 9012 CLAES BORIS   SH 45 0:45:24 04:59 12.03
88 9368 QUANRANTA MICHAEL   SH 46 0:45:27 05:00 12.02
89 9405 BRAGARD ERICOOO   SH 47 0:45:28 05:00 12.01
90 9390 DESCHAMPS CÉLESTINE   SD 10 0:45:28 05:00 12.01
91 9411 LAINERI LAURENT   V1 13 0:45:28 05:00 12.01
92 9120 CENNÉ PIERRE   JH 8 0:45:33 05:00 11.99
93 9141 PARTONNE DAVID   V1 14 0:45:35 05:00 11.98
94 9341 LOHEST NATHAN   SH 48 0:45:36 05:01 11.98
95 9113 CUTAIA ALEXANDRE FN06 SH 49 0:45:43 05:01 11.95
96 9247 ED SABEL   V2 6 0:45:48 05:02 11.92
97 9057 LEEMANS FILIP FEAR V2 7 0:45:59 05:03 11.88
98 9003 BECKERS DANIEL PROVINCE LIÈGE V2 8 0:46:06 05:04 11.85
99 9081 MATHIEU DIDIER CHC SH 50 0:46:09 05:04 11.83
100 9352 SOWA VERONIQUE   A1 7 0:46:15 05:05 11.81
101 9349 JOIRIS SAMUEL   V1 15 0:46:15 05:05 11.81
102 9186 SCHROUFF GEORGES AMICALE JOGGING V2 9 0:46:20 05:05 11.79
103 9272 MATHIEU JONATHAN   SH 51 0:46:22 05:06 11.78
104 9161 LETAWE AURÉLIEN   SH 52 0:46:29 05:06 11.75
105 9393 TAPIN FLORIAN   SH 53 0:46:39 05:08 11.71
106 9303 LELEUX CHRISTIAN   V3 3 0:46:40 05:08 11.70
107 9223 LEJEUNE OLIVIA   SD 11 0:46:40 05:08 11.70
108 9024 MICHEL JOÉ   SH 54 0:46:42 05:08 11.69
109 9162 LAMBERTY BASTIAN   JH 9 0:46:43 05:08 11.69
110 9277 PAULUS JEAN LOU   V3 4 0:46:55 05:09 11.64
111 9377 LAMATTINA THOMAS   JH 10 0:46:56 05:09 11.64
112 9310 MASSIN OLIVIER   V2 10 0:46:59 05:10 11.62
113 9309 PIEP RENE   V2 11 0:46:59 05:10 11.62
114 9216 BERNIER RODOLPHE   SH 55 0:46:59 05:10 11.62
115 9450 TONN DIDIER   V1 16 0:47:12 05:11 11.57
116 9222 TOCK SARAH   SD 12 0:47:15 05:11 11.56
117 9268 VEROUS DAVID   SH 56 0:47:17 05:12 11.55
118 9430 KINET NICOLAS   SH 57 0:47:18 05:12 11.55
119 9069 PODREZENKOVA POLINA   SD 13 0:47:19 05:12 11.54
120 9183 DUPONT CAROLINE   A1 8 0:47:21 05:12 11.53
121 9359 HARO MIGUEL   V1 17 0:47:21 05:12 11.53
122 9215 TASQUIN GUILLAUME   SH 58 0:47:25 05:13 11.52
123 9168 DISCART GAUTHIER   JH 11 0:47:56 05:16 11.39
124 9412 CHOFFRAY STEPHANE   SH 59 0:47:56 05:16 11.39
125 9351 RENARD BENOIT   V1 18 0:48:04 05:17 11.36
126 9169 DISCART ADELINE   SD 14 0:48:13 05:18 11.33
127 9226 FERNANDEZ HERRERA BERNARD   V1 19 0:48:15 05:18 11.32
128 9094 SERNA CHRISTOPHE CHC V1 20 0:48:18 05:18 11.31
129 9202 PIANCATELLI PAOLO   V2 12 0:48:19 05:19 11.30
130 9426 CENGIAROTTI DARIO   V3 5 0:48:23 05:19 11.29
131 9136 DI FILIPPO YVAN   V2 13 0:48:23 05:19 11.29
132 9381 LOCHT PIERRE   SH 60 0:48:33 05:20 11.25
133 9360 DESSART KEVIN   SH 61 0:48:34 05:20 11.24
134 9398 FORTOMME ANDRE AC NEUPRE V3 6 0:48:36 05:20 11.24
135 9185 DEWIL JEAN   V2 14 0:48:40 05:21 11.22
136 9314 ISTACE GREGORY   SH 62 0:48:55 05:22 11.16
137 9177 JOLLY BLANCHE JCPMF A1 9 0:48:58 05:23 11.15
138 9424 CIOPPA FRANCO   V1 21 0:48:59 05:23 11.15
139 9096 SMEETS GERNAINE CHC A1 10 0:49:06 05:24 11.12
140 9089 RAUX ALICE CHC SD 15 0:49:07 05:24 11.12
141 9456 TAMPESTE EDUARDO   SH 63 0:49:07 05:24 11.12
142 9444 VAN RANDFRAAT MARTINE   A1 11 0:49:08 05:24 11.11
143 9447 HENRY EMMANUEL   V1 22 0:49:12 05:24 11.10
144 9116 THYS JOSEPH KNAUF V2 15 0:49:14 05:25 11.09
145 9157 MERTENS LOU   JF 1 0:49:39 05:27 11.00
146 9461 DEBY CHRISTELLE   SH 64 0:49:49 05:28 10.96
147 9211 SERVAIS CHRISTOPHE   SH 65 0:49:56 05:29 10.94
148 9276 OP DE BEECK CYRIL   SH 66 0:49:56 05:29 10.94
149 9212 SERVAIS FABRICE   SH 67 0:49:59 05:29 10.93
150 9065 LAHAYE LIONEL CHC V1 23 0:50:05 05:30 10.90
151 9267 THIRY CHRISTOPHE   V1 24 0:50:20 05:32 10.85
152 9283 LAMARCHE MAUDE   SD 16 0:50:21 05:32 10.85
153 9281 ALEXANDRE VALERIE   A1 12 0:50:22 05:32 10.84
154 9150 VANHERCK ANNE CHARLOTTE   SD 17 0:50:42 05:34 10.77
155 9379 SANGIOVANNI WALTER   V2 16 0:50:47 05:35 10.75
156 9362 LUCAS PIERRE   V3 7 0:50:54 05:36 10.73
157 9279 VANDERMEULEN FRANCOISE   A1 13 0:50:56 05:36 10.72
158 9084 OLIVIER ANNE-CLAIRE CHC SD 18 0:50:57 05:36 10.72
159 9014 VANBOQUESTAELS MARINE THEODO TEMPO SD 19 0:50:58 05:36 10.71
160 9274 ELISIO ADEMIR   JH 12 0:51:06 05:37 10.69
161 9030 LAARAKKERS JOOP   V3 8 0:51:08 05:37 10.68
162 9086 PIQUERAY CÉLINE CHC SD 20 0:51:08 05:37 10.68
163 9402 TOUSSAINT CAROLE   SD 21 0:51:08 05:37 10.68
164 9170 STEENEBRUGGEN LOREMIE   SD 22 0:51:11 05:37 10.67
165 9167 WERELDS CHRISTIAN   V2 17 0:51:12 05:38 10.67
166 9058 DIANA HERNANDEZ   SD 23 0:51:13 05:38 10.66
167 9038 CNOCQUART FRÉDÉRIC CHC V1 25 0:51:15 05:38 10.66
168 9098 THIJS MATHIEU CHC V3 9 0:51:16 05:38 10.65
169 9263 DIEDEREN MANON   JF 2 0:51:17 05:38 10.65
170 9227 JACQUES AMÉLIE   SD 24 0:51:18 05:38 10.65
171 9275 SIMON VICTOR   JH 13 0:51:21 05:39 10.63
172 9335 CARBONNEAU ULYSSE   SH 68 0:51:23 05:39 10.63
173 9017 SAMPOUX GREG   V1 26 0:51:24 05:39 10.62
174 9284 DALEM MARIANNE   A1 14 0:51:24 05:39 10.62
175 9317 BALDO FABIAN   V2 18 0:51:30 05:39 10.60
176 9408 AUDRIT MARINE   SD 25 0:51:34 05:40 10.59
177 9097 STEVENS NICOLAS CHC SH 69 0:51:43 05:41 10.56
178 9224 DOMMANS PAULINE   A3 1 0:51:43 05:41 10.56
179 9459 EL HAJJAJI MOHSSIN   SH 70 0:51:43 05:41 10.56
180 9082 MINOT CYNTHIA CHC SD 26 0:51:44 05:41 10.56
181 9440 ONCLIN MARINE   SD 27 0:51:49 05:42 10.54
182 9439 DOUTREWE CHLOE   SD 28 0:51:49 05:42 10.54
183 9050 DREZE MARIE CHC SD 29 0:51:52 05:42 10.53
184 9328 MATHY RACHEL   A1 15 0:51:55 05:42 10.52
185 9355 DUSOULIER JEAN-MICHEL   V1 27 0:51:55 05:42 10.52
186 9156 JACOB SIBYL   A1 16 0:51:56 05:42 10.52
187 9416 ARNONE OLIVIER AB INVEV SH 71 0:51:57 05:42 10.51
188 9383 MERTES ISABELLE   A1 17 0:52:00 05:43 10.50
189 9059 GILLET MARIE-PIERRE CHC A1 18 0:52:12 05:44 10.46
190 9295 NEYBUCH VALERIE   A1 19 0:52:15 05:44 10.45
191 9438 CAMBIEN GREGORY   V1 28 0:52:22 05:45 10.43
192 9145 CORNARD LAURINE   SD 30 0:52:22 05:45 10.43
193 9414 VANDERHEYDEN VALERIE   A1 20 0:52:23 05:45 10.43
194 9091 SAGLIME ERIC CHC V1 29 0:52:25 05:46 10.42
195 9264 DUBAU JEAN-PHILIPPE   V1 30 0:52:30 05:46 10.40
196 9110 MANDREOLI WILLIAM FNO6 V1 31 0:52:33 05:46 10.39
197 9449 DURBUY LAURENCE   A1 21 0:52:35 05:47 10.39
198 9179 VERJANS DOMINIQUE   V2 19 0:52:40 05:47 10.37
199 9409 SOETERMANS AURORE   SD 31 0:52:47 05:48 10.35
200 9327 SCUVIE MONIQUE   A1 22 0:52:48 05:48 10.34
201 9172 VERBIEST ALAIN   V2 20 0:52:54 05:49 10.32
202 9131 WANSART PHILIPPE PROVINCE LIÈGE V1 32 0:52:55 05:49 10.32
203 9353 VAN ESCH DAVID   V1 33 0:52:58 05:49 10.31
204 9230 BOULTON SANDRINE   SD 32 0:53:14 05:51 10.26
205 9397 VANDERMISSEN-BADA CHRISTEL   A1 23 0:53:18 05:51 10.25
206 9269 DEWANDRE FABRICE   V1 34 0:53:19 05:51 10.24
207 9034 TOMASZEWSKI CHRISTEL   SD 33 0:53:26 05:52 10.22
208 9035 CRAHAY DAVID   V1 35 0:53:26 05:52 10.22
209 9372 DELHEZ LEO   JH 14 0:53:32 05:53 10.20
210 9315 GRAEVEN REGIS   JH 15 0:53:32 05:53 10.20
211 9220 GRYSON AURORE   A2 1 0:53:35 05:53 10.19
212 9062 HAAS GENEVIÈVE CHC A2 2 0:53:35 05:53 10.19
213 9376 VINCENT PHILIPPE   V3 10 0:53:36 05:53 10.19
214 9053 DUMONT CAROLINE CHC SD 34 0:53:36 05:53 10.19
215 9130 VANOIRBECK DOMINIQUE PROVINCE LIÈGE A1 24 0:53:37 05:53 10.19
216 9370 MEYLEMANS CHRISTOPHE   SH 72 0:53:40 05:54 10.18
217 9206 DUCHATEAU CAROLE   SD 35 0:53:41 05:54 10.17
218 9055 GARBACZ ANDRÉ CHC V1 36 0:53:42 05:54 10.17
219 9046 DALEM NICOLE CHC A2 3 0:53:46 05:54 10.16
220 9399 LENNERTS JESSICA   SD 36 0:53:49 05:55 10.15
221 9209 WILLEMS DOMINIQUE   SD 37 0:53:56 05:56 10.13
222 9153 SOLHEID FRANCOISE RANDSTAD SD 38 0:54:03 05:56 10.10
223 9203 WILLEN BERNARD   V1 37 0:54:04 05:56 10.10
224 9137 KUPPENS DANIEL   V4 1 0:54:06 05:57 10.09
225 9154 MIGNON KATHLEEN   SD 39 0:54:09 05:57 10.09
226 9025 MICHEL PATRICK   V2 21 0:54:10 05:57 10.08
227 9419 SPITS WENDY   SD 40 0:54:10 05:57 10.08
228 9418 VAN DE BERG SARALINE   SD 41 0:54:13 05:57 10.07
229 9250 GODFIRNON LOLA   SD 42 0:54:13 05:57 10.07
230 9191 LE THI KIM LY AMICAL JOGGING A2 4 0:54:15 05:58 10.07
231 9251 NOUPRE ISABELLE   A1 25 0:54:19 05:58 10.05
232 9018 VAN DER GRIFT ANITA   A2 5 0:54:20 05:58 10.05
233 9217 DE TIEGE BEATRICE   A3 2 0:54:23 05:59 10.04
234 9297 BUZIN DENIS   V1 38 0:54:28 05:59 10.03
235 9350 LEROY PAUL MARIE   V2 22 0:54:29 05:59 10.02
236 9181 WILCHET CYRIELLE   SD 43 0:54:30 05:59 10.02
237 9208 WEUSTENRAAD CLAUDINE   A1 26 0:54:31 05:59 10.02
238 9187 NAVEZ MANON   SD 44 0:54:32 05:59 10.01
239 9392 CIARNIELLO FRANCOIS   V1 39 0:54:40 06:00 9.99
240 9135 HARDY HENRY   V4 2 0:54:44 06:01 9.98
241 9369 PEETERS KENJI   SH 73 0:54:46 06:01 9.97
242 9166 DAVISTER FABIENNE   A1 27 0:54:49 06:01 9.96
243 9241 CSIKVAR MALLAURY   SD 45 0:54:51 06:02 9.96
244 9423 CHARLIER TOM   JH 16 0:54:54 06:02 9.95
245 9422 CHARLIGA MATEO   JH 17 0:54:56 06:02 9.94
246 9182 SOUGNEZ STÉPHANIE   SD 46 0:55:03 06:03 9.92
247 9420 BORREGO CHARLIER SONIA   A1 28 0:55:04 06:03 9.92
248 9090 RITA MELISSA CHC SD 47 0:55:07 06:03 9.91
249 9205 LAEOMBLE MICHEL   V3 11 0:55:07 06:03 9.91
250 9044 WARNOTTE MARC   V2 23 0:55:08 06:03 9.91
251 9207 BAKKER JOLINE BASSENGE ON MOV SD 48 0:55:10 06:04 9.90
252 9373 HENNIN MANU   V1 40 0:55:17 06:04 9.88
253 9371 DEVEUX PIERRE   V1 41 0:55:17 06:04 9.88
254 9047 DELHAXHE PIERRE CHC JH 18 0:55:21 06:05 9.87
255 9457 HATOUFI AMINA   SD 49 0:55:22 06:05 9.86
256 9389 BENYABALLAN SOURAYA   A1 29 0:55:26 06:05 9.85
257 9099 THOUMSIN LUDIVINE CHC SD 50 0:55:30 06:06 9.84
258 9339 DUBUISSON MARIE   SD 51 0:55:36 06:07 9.82
259 9036 BRUGMANS NATHALIE CHC A1 30 0:55:41 06:07 9.81
260 5102 BRUWIER ANNICK KNAUF SD 52 0:55:41 06:07 9.81
261 9083 MORDAN PAULINE CHC SD 53 0:55:41 06:07 9.81
262 9001 AMABILI DANIELLE MPW-HJM A3 3 0:55:43 06:07 9.80
263 9364 GEMIS CLAUDE   V3 12 0:56:00 06:09 9.75
264 9334 COOLS MARINE   SD 54 0:56:02 06:09 9.75
265 9254 MATHY LAURINE   SD 55 0:56:05 06:10 9.74
266 9124 DELSUPEXHE NADÈGE MPW/HJM SD 56 0:56:06 06:10 9.73
267 9041 COLLET ANNE CHC A1 31 0:56:09 06:10 9.73
268 9210 BULLY MURIEL   A1 32 0:56:11 06:10 9.72
269 9382 FAMERIC LAURENCE   A1 33 0:56:11 06:10 9.72
270 9125 BELLEFROID MURIEL PROVINCE LIÈGE SH 74 0:56:11 06:10 9.72
271 9380 RAMAEKERS INE   A1 34 0:56:12 06:10 9.72
272 9289 RINGLET INES   JF 3 0:56:21 06:11 9.69
273 9290 RINGLET JEAN-FRANCOIS   V1 42 0:56:21 06:11 9.69
274 9233 THIJSSEN REINOU   A2 6 0:56:32 06:13 9.66
275 9234 THIJSSEN THEO   V2 24 0:56:33 06:13 9.66
276 9451 DUMONT ESTELLE   SD 57 0:56:36 06:13 9.65
277 9256 LELEUX STEPHANIE   A1 35 0:56:42 06:14 9.63
278 9257 LEMAIRE NATHALIE LETS GO A1 36 0:56:42 06:14 9.63
279 9436 HUMBLET JACQUES   V2 25 0:56:47 06:14 9.62
280 9340 SPELTE NICOLAS   SH 75 0:56:54 06:15 9.60
281 9031 MICHEL CAROLE-ANNE   SD 58 0:56:55 06:15 9.59
282 9048 DEWANDRE QUENTIN CHC SH 76 0:56:57 06:15 9.59
283 9316 DUCHESNE CAMILLE   SD 59 0:57:00 06:16 9.58
284 9308 DAHMOUN JEAN MICHEL   xxx   0:57:02 06:16 9.58
285 9345 DOUMEN ALEXANDRA   SD 60 0:57:03 06:16 9.57
286 9354 FERNANDEZ MELANIE   SD 61 0:57:03 06:16 9.57
287 9346 TROQUET JEAN-CHRISTOPHE   SH 77 0:57:03 06:16 9.57
288 9115 THYS HENRI KNAUF V2 26 0:57:08 06:17 9.56
289 9330 KREMERS PAUL   V2 27 0:57:13 06:17 9.54
290 9261 JUPREZ PONSE   SD 62 0:57:17 06:18 9.53
291 9143 DEBOUGNOUX CLARA   JF 4 0:57:20 06:18 9.53
292 9434 BERGER VERONIQUE   A2 7 0:57:23 06:18 9.52
293 9015 ELIFOGLU RÉSIDE MPW-HJM A2 8 0:57:35 06:20 9.48
294 9448 BASTIN PHILIPPE   V1 43 0:57:37 06:20 9.48
295 9452 LEJEUNE NICOLAS   SH 78 0:57:43 06:20 9.46
296 9248 FRYNS RAPHAELLE   A1 37 0:57:47 06:21 9.45
297 9072 DUPONT BENOÎT   SH 79 0:57:49 06:21 9.45
298 9415 BOONS ELODIE   SD 63 0:57:51 06:21 9.44
299 9301 VEROLLEMAN PIERRE   SH 80 0:58:00 06:22 9.42
300 9302 LELEUX FRANCOISE   SD 64 0:58:00 06:22 9.42
301 9293 MARULLIA LAETITA   SD 65 0:58:02 06:23 9.41
302 9291 POISKET JEAN-MICHEL   SH 81 0:58:03 06:23 9.41
303 9246 KINET VIRGINIE   SD 66 0:58:03 06:23 9.41
304 9266 GILLON CAROLINE   SD 67 0:58:04 06:23 9.40
305 9446 HERZET SYLVIE   A2 9 0:58:07 06:23 9.40
306 9184 REINAERS CÉCILE   A1 38 0:58:10 06:23 9.39
307 9259 PHILIPPE LEI   SH 82 0:58:20 06:25 9.36
308 9109 MARÉCHAL AURELIE   SD 68 0:58:24 06:25 9.35
309 9180 WARPS HENK   V4 3 0:58:25 06:25 9.35
310 9108 MARECHAL JEROME   SH 83 0:58:33 06:26 9.33
311 9176 DEFROIMONT ANNE HST A1 39 0:58:35 06:26 9.32
312 9175 VANWOIRBEKE MURIEL   A1 40 0:58:38 06:27 9.31
313 9033 LAPAILLE PIERRETTE   A2 10 0:58:42 06:27 9.30
314 9068 COCHIN WENDY   SD 69 0:58:43 06:27 9.30
315 9435 HUMBLET ANOUR   SH 84 0:58:48 06:28 9.29
316 9367 FRYNS GILBERT   V3 13 0:58:55 06:28 9.27
317 9029 SCHIFFELERS SANDRA   A1 41 0:58:56 06:28 9.27
318 9054 FAIRON ISABELLE CHC SD 70 0:58:58 06:29 9.26
319 9240 PELSSERS LISA   SD 71 0:59:01 06:29 9.25
320 9174 MOOR STÉPHANIE LES CAMAS A2 11 0:59:02 06:29 9.25
321 9238 LENTO ROSA   SD 72 0:59:03 06:29 9.25
322 9229 RECHIER USHA   A1 42 0:59:04 06:29 9.25
323 9273 VYNCKE PAUL   V3 14 0:59:05 06:29 9.24
324 9395 DUCHATEAU HUGO   V3 15 0:59:07 06:30 9.24
325 9237 HANHERCK MARTINE   SD 73 0:59:11 06:30 9.23
326 9453 FOURNEAU IANIS   SH 85 0:59:15 06:31 9.22
327 9105 EMBRECHTS SYLVIE JOGGING ACADEMY A1 43 0:59:16 06:31 9.21
328 9403 WOUTERS MICHAEL   V1 44 0:59:17 06:31 9.21
329 9425 BREUWER MARYLINE   A1 44 0:59:18 06:31 9.21
330 9454 DE BROGNIEZ VALENTINE   SD 74 0:59:19 06:31 9.21
331 9280 STRATMANS ISABELLE   A1 45 0:59:30 06:32 9.18
332 9101 TRIPPAERS QUENTIN CHC SH 86 0:59:33 06:33 9.17
333 9193 LE THIRIMLIEN   A1 46 0:59:38 06:33 9.16
334 9171 CRENIER JUSTINE   SD 75 0:59:40 06:33 9.15
335 9122 VERVIER EMMA   JF 5 0:59:59 06:35 9.10
336 9213 JANS THIERRY   V2 28 1:00:07 06:36 9.08
337 9292 GILLARD GAELLE   SD 76 1:00:07 06:36 9.08
338 9294 MASSIN JULIEN   SH 87 1:00:08 06:36 9.08
339 9319 MURILLO PENELOPE   SD 77 0:1:00:14 #VALEUR! #VALEUR!
340 9265 SOUTMANS BRIGITTE   A3 4 0:1:00:20 #VALEUR! #VALEUR!
341 9201 SAWELLI CARLO   SH 88 0:1:00:22 #VALEUR! #VALEUR!
342 9200 BELLEFLAMME MANON   SD 78 0:1:00:22 #VALEUR! #VALEUR!
343 9138 DELHOTTE SOPHIE   A1 47 0:1:00:22 #VALEUR! #VALEUR!
344 9061 SIGISMONDI RAFFAELE JOG'IN ATTITUDE V1 45 0:1:00:25 #VALEUR! #VALEUR!
345 9288 FOUARGE MADISON   SD 79 1:00:29 06:39 9.03
346 9287 FOUARGE ALLISON   SD 80 1:00:29 06:39 9.03
347 9126 CHATELAIN DOMINIQUE PROVINCE LIÈGE V2 29 0:1:00:31 #VALEUR! #VALEUR!
348 9386 MOCQ KARINE   A1 48 1:00:44 06:40 8.99
349 9384 NR 9384   xxx   1:00:46 06:41 8.99
350 9262 GOETHALS ELKE   SD 81 1:00:48 06:41 8.98
351 9121 VERVIER INGRID   A1 49 1:00:58 06:42 8.96
352 9077 LALLEMANT ALAIN LEG'S GO V1 46 1:01:16 06:44 8.91
353 9076 GERON MARIE-FRANCE LEG'S GO A1 50 1:01:16 06:44 8.91
354 9336 CONRAADS TOM   SH 89 1:01:23 06:45 8.90
355 9347 GOESAEKT RACHEL   SD 82 1:01:24 06:45 8.89
356 9139 VANEX PASCAL RUNNING TEAM VI V1 47 1:01:28 06:45 8.88
357 9080 MARCHANDISE SOPHIE CHC JF 6 1:01:39 06:46 8.86
358 9365 SCALAIS CATHERINE   A2 12 1:01:41 06:47 8.85
359 9366 THEYS VIRGINIE   A1 51 1:01:41 06:47 8.85
360 9027 ELEZ MARIJA MARATHONIENS PR A2 13 1:01:42 06:47 8.85
361 9051 DRIESSENS DAPHNÉ CHC SD 83 1:01:45 06:47 8.84
362 9322 SERVENT MARINE   SD 84 1:01:59 06:49 8.81
363 9192 BLANDINA ELÉONORE   A1 52 1:02:00 06:49 8.81
364 9190 DUMINUCO ENZI   V2 30 1:02:01 06:49 8.81
365 9199 DARCIS BARBARA HST A1 53 1:02:05 06:49 8.80
366 9198 DE ROOS ANNIE HST A2 14 1:02:05 06:49 8.80
367 9285 LODATO SALVATORE   V4 4 1:02:08 06:50 8.79
368 9142 PATRIARCA TIZIANA   A1 54 1:02:11 06:50 8.78
369 9052 DROSSART CAROLINE CHC SD 85 1:02:15 06:50 8.77
370 9026 DEFFET DELPHINE MARATHONIENS PR A1 55 1:02:17 06:51 8.77
371 9235 LORMANS FRANLOISE   A2 15 1:02:19 06:51 8.76
372 9114 AGUIAR SOLEDA KNAUF SD 86 1:02:19 06:51 8.76
373 9160 LEJEUNE JEAN-MICHEL   V1 48 1:02:24 06:51 8.75
374 9092 SAJOTTE ISABELLE CHC A1 56 1:02:26 06:52 8.75
375 9040 COLLARD SOPHIE CHC SD 87 1:02:26 06:52 8.75
376 9243 ERKENS JENNIFER   A1 57 1:02:47 06:54 8.70
377 9244 DURIEUX ISABELLE PRFM A2 16 1:02:48 06:54 8.70
378 9123 MARIGHETTO CLORINDA MPW/HJM A2 17 1:02:59 06:55 8.67
379 9455 BERTRAND LAURA   SD 88 1:03:08 06:56 8.65
380 9323 BOMANS SIMON   SH 90 1:03:12 06:57 8.64
381 9075 CARIA FRANCESCA MPW-HJM A1 58 1:03:12 06:57 8.64
382 9460 COLLEYE RAPHAEL   V1 49 1:03:24 06:58 8.61
383 9196 CAPO ELODIE   SD 89 1:03:25 06:58 8.61
384 9326 COX NADINE   A1 59 1:03:34 06:59 8.59
385 9204 VERCHEVAL MADINE   A2 18 1:03:34 06:59 8.59
386 9221 HOSSAY COLETTE   A1 60 1:03:43 07:00 8.57
387 9006 GUIDÉ MADELEINE MPW-HJM A2 19 1:03:46 07:00 8.56
388 9428 MANDERLIER LAURIE   SD 90 1:03:52 07:01 8.55
389 9022 GERARD CHRISTELLE   A1 61 1:03:56 07:01 8.54
390 9023 RENAERS STEPHANE   V1 50 1:03:56 07:01 8.54
391 9049 DEWANDRE CAROLINE CHC SD 91 1:04:20 07:04 8.49
392 9144 DEBOUGNOUX MICHEL   V2 31 1:04:21 07:04 8.49
393 9039 COLIGNON MARYSE CHC A3 5 1:04:22 07:04 8.48
394 9413 DE MOURA DENYS VICTOR   SH 91 1:04:25 07:05 8.48
395 9270 BRUNEL ELODIE   SD 92 1:04:40 07:06 8.44
396 9441 SPELTE ANNE-SOPHIE   SD 93 1:04:41 07:06 8.44
397 9442 BEUKEN PIERRE   SH 92 1:04:41 07:06 8.44
398 9064 KARA ALIRIZA CHC V1 51 1:05:04 07:09 8.39
399 9037 CAMMARATA SANDRA CHC SD 94 1:05:05 07:09 8.39
400 9002 HERMANT DOMINIQUE   A3 6 1:05:13 07:10 8.37
401 9107 JACOBS NOEL JOGGING ACADEMY V3 16 1:05:25 07:11 8.35
402 9106 CAMAL GENEVIEVE JOGGING ACADEMY A2 20 1:05:26 07:11 8.35
403 9236 VAN BEVER INGRID   A2 21 1:05:39 07:13 8.32
404 9079 MARCHANDISE JULIA CHC SD 95 1:05:44 07:13 8.31
405 9067 LAVIS AGNÈS CHC A2 22 1:05:44 07:13 8.31
406 9255 PERPETE ANNE-MARIE START-TO-RUN / A3 7 1:05:51 07:14 8.29
407 9060 GRANVILLE ALINE CHC SD 96 1:06:16 07:17 8.24
408 9133 COSU OREA   SD 97 1:06:22 07:17 8.23
409 9134 DELABARRE SOPHIE   A1 62 1:06:22 07:17 8.23
410 9296 ROQUET CHRISTELLE   A1 63 1:06:34 07:19 8.20
411 9245 BAILLY MARIE-FRANCE   A1 64 1:06:40 07:19 8.19
412 9007 BINGE WOUTER   V1 52 1:06:53 07:21 8.17
413 9188 BRUNO ADRIANA   A2 23 1:07:24 07:24 8.10
414 9252 DENIE TAMARA   A1 65 1:08:22 07:31 7.99
415 9008 HANSSON HELENA TEAM BLEKINGE A3 8 1:09:10 07:36 7.90
416 9165 ROSEN FRANCE   A1 66 1:11:48 07:53 7.61
417 9163 WYRZYKOWSKI KARIN   A1 67 1:11:48 07:53 7.61
418 9427 ADAMEK OLIVIER   V1 53 1:12:45 08:00 7.51
419 9232 KILESSE JEAN-LUC   V3 17 1:13:53 08:07 7.39
420 9320 SACRE MEGAN   SD 98 1:13:54 08:07 7.39
421 9321 NACCARELLA GINO   V3 18 1:13:54 08:07 7.39
422 9016 KOVAC MARTINE MPW-HJM A2 24 1:15:51 08:20 7.20
423 9010 ANDERSSON KETHY TEAM BLEKINGE A3 9 1:27:24 09:36 6.25
424 9127 CUELENAERE LAURIE PROVINCE LIÈGE SD 99 1:39:11 10:54 5.51